Find OneWeb SL0155

NORAD ID: 48057 Int'l Des: 2021-025 Owner: ONEWEBN Country: UK Constellation: oneweb operational
LEOCIRCULARPOLARONEWEB_TYPE

現在のビュー

3D地球を読み込み中...

About OneWeb SL0155

OneWeb SL0155 (NORAD 48057) is a oneweb constellation satellite launched Mar 25, 2021 by ONEWEBN of UK. It operates in LEO, CIRCULAR, POLAR, ONEWEB_TYPE orbit with a mass of 148.00 kg.

OneWeb SL0155について

説明を読み込み中...

次回通過

Passes for default location (London). Set your location on the main map for personalized predictions.

高度履歴

Loading altitude history...

軌道要素

1 48057U 21025R 26170.34592744 .00000075 00000-0 17153-3 0 9990
2 48057 87.8960 319.7898 0001832 102.9134 257.2200 13.13469586253962
Epoch: Jun 19, 2026 • Age: 16 hours

現在のステータス

高度 1233.6 km
速度 7.24 km/s
衛星直下点 -58.03°S, 41.13°E
打ち上げ日 Mar 25, 2021
運用期間 5.2 years
タイプ internet

技術仕様

分類 Payload
質量 148.00 kg
乾燥質量 140.00 kg
総質量 148.00 kg
長さ 1.30 m
直径 1.00 m
スパン 5.00 m
形状 Trapezoid+2 pan
製造者 ONEWUS
バスタイプ ARROW
フェーズステータス In Orbit
所有者/国 ONEWEBN/UK

Most Searched